Location: Oso Ridge
(35.0450°N, 108.0864°W)
Time: 20:12:21
(UTC-06:00)

Amateur Radio Satellites - All Passes

Search period start: 23 March 2017 19:42
Search period end: 24 March 2017 19:42
Location: Oso Ridge, 35.0450°N, 108.0864°W

Satellite Date Start Highest point End Downlink Frequencies (MHz)
Time Altitude Azimuth
NUDT-PHONESAT 23 Mar 19:47:18 19:49:36 16° 266° (W) 19:51:55 437.300
YUBILEINY 23 Mar 19:49:29 19:58:13 73° 83° (E) 20:06:53 435.215
KAITUO 1B 23 Mar 19:50:39 19:52:42 14° 266° (W) 19:54:46 145.475/437.950
XW-2C 23 Mar 19:53:01 19:54:08 11° 268° (W) 19:55:15 145.795 - 145.815
CUTE-I 23 Mar 19:58:22 20:02:11 20° 266° (W) 20:06:02 437.470
ZACube-1 23 Mar 20:03:23 20:05:29 13° 66° (ENE) 20:07:35 437.345
AAUSAT CUBESAT 2 23 Mar 20:24:53 20:28:47 43° 74° (ENE) 20:32:41 437.432
SEEDS 23 Mar 20:30:26 20:34:35 69° 259° (W) 20:38:44 437.485
CUTE 1.7 + AOD 2 23 Mar 20:31:16 20:35:16 41° 262° (W) 20:39:15 437.475
AO-73 23 Mar 20:31:58 20:35:39 25° 70° (ENE) 20:39:19 145.935
PCSat 23 Mar 20:39:14 20:44:41 81° 246° (WSW) 20:50:05 145.827
UWE-3 23 Mar 20:48:24 20:53:04 75° 76° (ENE) 20:57:43 435.000/436.395/437.385
STRAND 1 23 Mar 20:49:08 20:54:15 76° 285° (WNW) 20:59:19 437.568
XW-2A 23 Mar 20:50:59 20:52:42 13° 266° (W) 20:54:25 145.665 - 145.685
CUBEBUG 2 23 Mar 21:15:41 21:19:57 33° 263° (W) 21:24:15 437.445
HO-68 23 Mar 21:23:28 21:28:54 23° 265° (W) 21:34:21 435.675
RS-15 23 Mar 21:26:46 21:37:27 33° 41° (NE) 21:47:43 29.354- 29.394
Oscar 11 23 Mar 21:35:31 21:39:49 71° 259° (W) 21:44:08 .
ZACube-1 23 Mar 21:36:48 21:41:16 53° 260° (W) 21:45:43 437.345
PRISM 23 Mar 21:43:24 21:45:04 12° 93° (E) 21:46:44 437.425
ISS 23 Mar 21:47:44 21:50:55 56° 134° (SE) 21:54:08 437.550
YUBILEINY 23 Mar 21:48:17 21:54:00 20° 279° (W) 21:59:45 435.215
Tancredo 1 23 Mar 22:01:59 22:05:07 82° 317° (NW) 22:08:18 437.200
AAUSAT CUBESAT 2 23 Mar 22:02:59 22:04:25 12° 268° (W) 22:05:51 437.432
AO-73 23 Mar 22:07:55 22:11:44 26° 264° (W) 22:15:32 145.935
AO-85 23 Mar 22:10:40 22:15:12 77° 299° (WNW) 22:19:26 145.980
DELFI C3 23 Mar 22:12:48 22:16:43 89° 274° (W) 22:20:38 145.870
TIGRISAT 23 Mar 22:58:28 23:02:41 43° 99° (E) 23:06:48 435.000
UNISAT 6 23 Mar 23:07:32 23:11:56 62° 101° (E) 23:16:12 437.425
BEESAT 3 23 Mar 23:09:38 23:13:13 37° 114° (ESE) 23:16:53 437.485
LO-87 23 Mar 23:10:31 23:13:55 43° 75° (ENE) 23:17:21 145.935 - 145.965
PRISM 23 Mar 23:16:34 23:20:31 43° 287° (WNW) 23:24:27 437.425
BEESAT 2 23 Mar 23:19:22 23:21:58 17° 110° (ESE) 23:24:36 435.950
ISS 23 Mar 23:25:32 23:27:38 16° 331° (NNW) 23:29:44 437.550
ESTCUBE 1 23 Mar 23:25:38 23:29:43 36° 72° (ENE) 23:33:49 437.505/2401.250
FO-29 23 Mar 23:27:56 23:33:48 52° 99° (E) 23:39:03 435.910
RS-15 23 Mar 23:39:01 23:51:13 78° 245° (WSW) 00:02:49 29.354- 29.394
Tancredo 1 23 Mar 23:40:38 23:41:43 11° 335° (NNW) 23:42:48 437.200
AIST 2D 24 Mar 00:05:10 00:08:19 31° 97° (E) 00:11:27 435.315
NANOSAT C BR1 24 Mar 00:13:51 00:17:05 21° 95° (E) 00:20:17 145.865
EO-79 24 Mar 00:16:13 00:19:43 25° 96° (E) 00:23:11 145.935-145.965
SPROUT 24 Mar 00:22:49 00:26:48 39° 73° (ENE) 00:30:49 437.525
50 SAT 24 Mar 00:23:08 00:25:56 24° 72° (ENE) 00:28:45 437.505
TIGRISAT 24 Mar 00:36:36 00:38:56 14° 294° (WNW) 00:41:14 435.000
DX 1 24 Mar 00:39:03 00:42:44 28° 70° (ENE) 00:46:28 434.975-435.025
POLYITAN 1 24 Mar 00:42:52 00:47:01 54° 100° (E) 00:51:08 437.675
QB50P2 24 Mar 00:47:17 00:51:30 67° 101° (E) 00:55:42 145.880/145.840
UNISAT 6 24 Mar 00:47:24 00:48:01 10° 296° (WNW) 00:48:38 437.425
BEESAT 3 24 Mar 00:48:25 00:50:57 16° 310° (NW) 00:53:31 437.485
VELOX 1 24 Mar 00:51:09 00:55:32 79° 258° (WSW) 00:59:57 145.980
BEESAT 2 24 Mar 00:55:55 00:59:28 32° 305° (NW) 01:03:04 435.950
SO-50 24 Mar 01:03:22 01:07:48 57° 58° (ENE) 01:12:13 436.795
ESTCUBE 1 24 Mar 01:03:42 01:06:36 17° 266° (W) 01:09:31 437.505/2401.250
DUCHIFAT 1 24 Mar 01:04:12 01:08:26 81° 104° (ESE) 01:12:36 145.980
FO-29 24 Mar 01:14:14 01:18:15 19° 298° (WNW) 01:22:01 435.910
UKube-1 24 Mar 01:24:38 01:28:54 68° 76° (ENE) 01:33:12 .
BUGSAT 1 24 Mar 01:32:43 01:36:49 53° 100° (E) 01:40:50 437.445
AIST 2D 24 Mar 01:40:01 01:41:12 11° 291° (WNW) 01:42:23 435.315
Oscar 19 24 Mar 01:48:42 01:52:46 23° 95° (E) 01:56:49 437.125/150
NANOSAT C BR1 24 Mar 01:49:13 01:52:43 26° 290° (WNW) 01:56:12 145.865
EO-79 24 Mar 01:52:02 01:55:20 22° 290° (WNW) 01:58:36 145.935-145.965
RS-15 24 Mar 01:55:44 02:01:29 15° 264° (W) 02:07:10 29.354- 29.394
50 SAT 24 Mar 01:57:01 01:58:57 14° 265° (W) 02:00:54 437.505
BEESAT 24 Mar 02:00:20 02:01:55 12° 63° (ENE) 02:03:29 436.000
SPROUT 24 Mar 02:00:28 02:02:50 15° 267° (W) 02:05:14 437.525
ITUPSAT 1 24 Mar 02:13:06 02:15:58 16° 66° (ENE) 02:18:50 437.325
DX 1 24 Mar 02:15:38 02:18:53 21° 264° (W) 02:22:09 434.975-435.025
POLYITAN 1 24 Mar 02:21:07 02:22:17 11° 295° (WNW) 02:23:27 437.675
MOZHAYETS 4 24 Mar 02:43:18 02:45:01 12° 65° (ENE) 02:46:44
SO-50 24 Mar 02:46:05 02:47:43 12° 253° (WSW) 02:49:22 436.795
BUGSAT 1 24 Mar 03:10:33 03:11:38 11° 295° (WNW) 03:12:44 437.445
Gurwin Techsat 1B 24 Mar 03:17:52 03:23:12 82° 285° (WNW) 03:28:31 435.225
Oscar 19 24 Mar 03:27:26 03:32:06 35° 290° (WNW) 03:36:46 437.125/150
ITAMSAT 1 24 Mar 03:29:35 03:33:11 19° 94° (E) 03:36:45 435.822/435.867
BEESAT 24 Mar 03:34:19 03:39:04 67° 258° (WSW) 03:43:51 436.000
ITUPSAT 1 24 Mar 03:48:45 03:53:22 47° 260° (W) 03:58:00 437.325
O/OREOS (USA 219) 24 Mar 03:50:16 03:54:45 49° 67° (ENE) 03:59:12 437.305
AO-7 24 Mar 04:05:19 04:12:54 38° 100° (E) 04:20:25 .
MOZHAYETS 4 24 Mar 04:17:05 04:21:38 59° 259° (W) 04:26:10
ISS 24 Mar 04:18:36 04:21:02 19° 31° (NNE) 04:23:26 437.550
KKS-1 24 Mar 04:19:56 04:23:46 29° 70° (ENE) 04:27:38 437.445
Tancredo 1 24 Mar 04:31:20 04:34:03 25° 34° (NE) 04:36:47 437.200
CUBESAT XI-V 24 Mar 05:01:33 05:06:04 62° 75° (ENE) 05:10:36 437.345
STARS 24 Mar 05:03:51 05:07:57 38° 72° (ENE) 05:12:04 437.465
ITAMSAT 1 24 Mar 05:07:53 05:12:48 44° 289° (WNW) 05:17:40 435.822/435.867
O/OREOS (USA 219) 24 Mar 05:31:36 05:33:39 13° 262° (W) 05:35:42 437.305
DOVE 4 24 Mar 05:48:50 05:49:49 10° 89° (E) 05:50:49 437.250
ISS 24 Mar 05:54:30 05:57:38 43° 227° (SW) 06:00:47 437.550
KKS-1 24 Mar 05:56:54 06:00:17 21° 265° (W) 06:03:42 437.445
AO-7 24 Mar 05:57:58 06:05:36 43° 296° (WNW) 06:13:14 .
Tancredo 1 24 Mar 06:07:27 06:10:10 25° 229° (SW) 06:12:53 437.200
M-CUBED/EXP-1 PRIME 24 Mar 06:21:40 06:25:08 59° 70° (ENE) 06:28:54 437.505
STRAND 1 24 Mar 06:26:25 06:28:11 12° 62° (ENE) 06:29:57 437.568
CUTE-I 24 Mar 06:37:53 06:42:03 23° 95° (E) 06:46:11 437.470
STARS 24 Mar 06:41:44 06:44:23 16° 266° (W) 06:47:04 437.465
LilacSat-2 24 Mar 06:42:31 06:45:39 24° 96° (E) 06:48:45 437.200
CUBESAT XI-V 24 Mar 06:43:24 06:43:47 10° 269° (W) 06:44:09 437.345
AO-85 24 Mar 06:45:07 06:48:39 30° 56° (NE) 06:52:15 145.980
XW-2F 24 Mar 06:46:11 06:49:18 25° 96° (E) 06:52:24 145.980 - 146.000
YUBILEINY 24 Mar 06:54:37 06:59:01 15° 79° (ENE) 07:03:25 435.215
NO-84 24 Mar 06:55:03 06:56:23 12° 124° (SE) 06:57:42 435.350 FM
HO-68 24 Mar 07:09:34 07:11:02 11° 90° (E) 07:12:31 435.675
XW-2D 24 Mar 07:09:52 07:13:34 58° 100° (E) 07:17:15 145.860 - 145.880
XW-2B 24 Mar 07:15:42 07:19:26 68° 100° (E) 07:23:09 145.730 - 145.750
NUDT-PHONESAT 24 Mar 07:19:24 07:23:02 59° 100° (E) 07:26:38 437.300
DOVE 4 24 Mar 07:22:40 07:27:59 78° 284° (WNW) 07:33:13 437.250
KAITUO 1B 24 Mar 07:23:08 07:26:48 68° 101° (E) 07:30:28 145.475/437.950
XW-2C 24 Mar 07:25:45 07:29:31 84° 278° (W) 07:33:14 145.795 - 145.815
STRAND 1 24 Mar 08:01:32 08:06:40 75° 258° (WSW) 08:11:50 437.568
XW-2A 24 Mar 08:14:17 08:17:31 42° 99° (E) 08:20:43 145.665 - 145.685
LilacSat-2 24 Mar 08:17:12 08:19:43 17° 290° (WNW) 08:22:14 437.200
CUTE-I 24 Mar 08:17:14 08:22:09 38° 290° (WNW) 08:27:01 437.470
SEEDS 24 Mar 08:17:52 08:21:15 24° 96° (E) 08:24:39 437.485
CUTE 1.7 + AOD 2 24 Mar 08:19:06 08:23:03 39° 98° (E) 08:27:01 437.475
XW-2F 24 Mar 08:20:49 08:23:14 17° 290° (WNW) 08:25:39 145.980 - 146.000
AO-85 24 Mar 08:26:06 08:28:47 18° 249° (WSW) 08:31:34 145.980
NO-84 24 Mar 08:31:08 08:33:40 28° 318° (NW) 08:36:12 435.350 FM
UWE-3 24 Mar 08:42:36 08:45:35 18° 94° (E) 08:48:30 435.000/436.395/437.385
YUBILEINY 24 Mar 08:45:45 08:54:32 89° 280° (W) 09:03:19 435.215
HO-68 24 Mar 08:52:25 08:59:37 81° 105° (ESE) 09:06:47 435.675
BEESAT 3 24 Mar 09:06:24 09:10:25 76° 242° (WSW) 09:14:23 437.485
CUBEBUG 2 24 Mar 09:09:33 09:13:57 69° 101° (E) 09:18:11 437.445
BEESAT 2 24 Mar 09:16:04 09:20:01 49° 58° (ENE) 09:23:55 435.950
Oscar 11 24 Mar 09:26:22 09:29:57 26° 96° (E) 09:33:32 .
ZACube-1 24 Mar 09:28:41 09:32:35 35° 98° (E) 09:36:23 437.345
PCSat 24 Mar 09:35:51 09:39:47 21° 106° (ESE) 09:43:43 145.827
FO-29 24 Mar 09:35:57 09:41:34 22° 63° (ENE) 09:47:00 435.910
AAUSAT CUBESAT 2 24 Mar 09:45:08 09:49:13 60° 284° (WNW) 09:53:18 437.432
JUGNU 24 Mar 09:48:41 09:52:09 16° 172° (S) 09:55:38 437.505
SEEDS 24 Mar 09:53:32 09:56:49 23° 289° (WNW) 10:00:06 437.485
TIGRISAT 24 Mar 09:53:41 09:57:39 28° 70° (ENE) 10:01:37 435.000
DELFI C3 24 Mar 09:54:25 09:56:37 14° 94° (E) 09:58:50 145.870
CUTE 1.7 + AOD 2 24 Mar 09:56:13 09:58:31 14° 292° (WNW) 10:00:49 437.475
AO-73 24 Mar 09:58:25 10:02:39 77° 102° (ESE) 10:06:47 145.935
PRISM 24 Mar 10:02:04 10:06:07 81° 77° (ENE) 10:10:12 437.425
UNISAT 6 24 Mar 10:02:38 10:06:57 38° 72° (ENE) 10:11:16 437.425
UWE-3 24 Mar 10:18:18 10:22:04 30° 289° (WNW) 10:25:45 435.000/436.395/437.385
HO-68 24 Mar 10:42:07 10:46:27 17° 301° (WNW) 10:50:48 435.675
YUBILEINY 24 Mar 10:47:45 10:52:30 15° 294° (WNW) 10:57:15 435.215
BEESAT 2 24 Mar 10:56:02 10:57:18 11° 252° (WSW) 10:58:33 435.950
Oscar 11 24 Mar 11:02:36 11:05:56 22° 290° (WNW) 11:09:14 .
NANOSAT C BR1 24 Mar 11:04:40 11:05:57 11° 65° (ENE) 11:07:13 145.865
ZACube-1 24 Mar 11:06:00 11:08:31 16° 292° (WNW) 11:11:01 437.345
EO-79 24 Mar 11:06:45 11:08:49 13° 66° (ENE) 11:10:51 145.935-145.965
PCSat 24 Mar 11:17:38 11:22:48 45° 301° (WNW) 11:27:59 145.827
FO-29 24 Mar 11:18:00 11:25:52 73° 258° (WSW) 11:33:28 435.910
DELFI C3 24 Mar 11:27:53 11:31:28 33° 287° (WNW) 11:35:03 145.870
TIGRISAT 24 Mar 11:30:23 11:34:13 25° 264° (W) 11:38:05 435.000
POLYITAN 1 24 Mar 11:32:21 11:35:56 27° 71° (ENE) 11:39:32 437.675
JUGNU 24 Mar 11:36:33 11:40:26 18° 182° (S) 11:44:19 437.505
QB50P2 24 Mar 11:36:36 11:40:23 32° 72° (ENE) 11:44:13 145.880/145.840
UNISAT 6 24 Mar 11:40:29 11:43:43 18° 266° (W) 11:46:57 437.425
SRMSAT 24 Mar 11:47:15 11:50:16 14° 169° (S) 11:53:16 437.500
RS-15 24 Mar 11:48:47 11:57:02 22° 100° (E) 12:05:27 29.354- 29.394
DUCHIFAT 1 24 Mar 11:52:33 11:56:28 37° 73° (ENE) 12:00:24 145.980
AIST 2D 24 Mar 12:08:52 12:12:20 51° 261° (W) 12:15:48 435.315
LO-87 24 Mar 12:13:45 12:17:25 88° 283° (WNW) 12:21:03 145.935 - 145.965
BUGSAT 1 24 Mar 12:19:22 12:22:46 24° 70° (ENE) 12:26:12 437.445
NANOSAT C BR1 24 Mar 12:36:58 12:41:08 54° 259° (W) 12:45:20 145.865
EO-79 24 Mar 12:40:02 12:44:08 45° 261° (W) 12:48:15 145.935-145.965
VELOX 1 24 Mar 12:44:52 12:48:32 25° 96° (E) 12:52:10 145.980
ESTCUBE 1 24 Mar 12:57:24 13:01:51 63° 285° (WNW) 13:06:19 437.505/2401.250
Gurwin Techsat 1B 24 Mar 12:59:18 13:01:38 13° 63° (ENE) 13:03:57 435.225
Oscar 19 24 Mar 13:02:34 13:06:39 25° 68° (ENE) 13:10:45 437.125/150
POLYITAN 1 24 Mar 13:08:21 13:11:39 21° 265° (W) 13:14:58 437.675
FO-29 24 Mar 13:09:51 13:11:40 11° 272° (W) 13:13:29 435.910
QB50P2 24 Mar 13:13:19 13:16:12 18° 266° (W) 13:19:06 145.880/145.840
UKube-1 24 Mar 13:16:20 13:18:43 14° 94° (E) 13:21:05 .
50 SAT 24 Mar 13:22:45 13:26:05 41° 99° (E) 13:29:24 437.505
JUGNU 24 Mar 13:26:07 13:28:42 13° 192° (SSW) 13:31:18 437.505
DUCHIFAT 1 24 Mar 13:29:47 13:32:14 15° 266° (W) 13:34:42 145.980
SRMSAT 24 Mar 13:34:44 13:38:42 18° 179° (S) 13:42:40 437.500
SPROUT 24 Mar 13:47:08 13:51:24 67° 284° (WNW) 13:55:37 437.525
BUGSAT 1 24 Mar 13:54:39 13:58:00 23° 264° (W) 14:01:25 437.445
RS-15 24 Mar 13:55:56 14:07:53 86° 298° (WNW) 14:20:20 29.354- 29.394
DX 1 24 Mar 14:05:33 14:09:58 85° 106° (ESE) 14:14:21 434.975-435.025
VELOX 1 24 Mar 14:21:12 14:24:51 25° 290° (WNW) 14:28:29 145.980
Gurwin Techsat 1B 24 Mar 14:35:36 14:40:54 71° 258° (WSW) 14:46:14 435.225
Oscar 19 24 Mar 14:41:12 14:45:45 33° 262° (W) 14:50:22 437.125/150
ITAMSAT 1 24 Mar 14:44:24 14:48:20 22° 67° (ENE) 14:52:16 435.822/435.867
UKube-1 24 Mar 14:50:49 14:54:52 40° 287° (WNW) 14:58:54 .
AO-7 24 Mar 15:00:48 15:08:22 40° 64° (ENE) 15:15:55 .
NO-84 24 Mar 15:06:42 15:09:34 27° 42° (NE) 15:12:39 435.350 FM
SO-50 24 Mar 15:14:19 15:18:41 40° 114° (ESE) 15:23:00 436.795
SRMSAT 24 Mar 15:23:47 15:27:09 15° 189° (S) 15:30:31 437.500
BEESAT 24 Mar 15:37:47 15:42:14 39° 99° (E) 15:46:39 436.000
ITUPSAT 1 24 Mar 15:52:14 15:56:55 55° 101° (E) 16:01:34 437.325
RS-15 24 Mar 16:12:38 16:22:25 27° 323° (NW) 16:32:25 29.354- 29.394
MOZHAYETS 4 24 Mar 16:15:21 16:19:38 39° 98° (E) 16:23:54
ITAMSAT 1 24 Mar 16:22:37 16:27:29 39° 261° (W) 16:32:23 435.822/435.867
NO-84 24 Mar 16:44:15 16:47:04 23° 233° (SW) 16:50:03 435.350 FM
AO-7 24 Mar 16:53:17 17:00:59 41° 260° (W) 17:08:43 .
SO-50 24 Mar 16:55:45 16:59:15 21° 309° (NW) 17:02:45 436.795
CUBESAT XI-V 24 Mar 17:02:03 17:05:26 20° 94° (E) 17:08:48 437.345
BEESAT 24 Mar 17:16:25 17:19:40 19° 293° (WNW) 17:22:55 436.000
ITUPSAT 1 24 Mar 17:31:55 17:34:14 14° 295° (WNW) 17:36:32 437.325
XW-2D 24 Mar 17:48:47 17:51:24 18° 70° (ENE) 17:54:01 145.860 - 145.880
KKS-1 24 Mar 17:49:39 17:54:10 88° 279° (W) 17:58:38 437.445
MOZHAYETS 4 24 Mar 17:53:34 17:56:27 17° 293° (WNW) 17:59:19
XW-2B 24 Mar 17:54:24 17:57:15 20° 71° (ENE) 18:00:05 145.730 - 145.750
CUTE-I 24 Mar 17:56:25 18:00:56 28° 68° (ENE) 18:05:27 437.470
NUDT-PHONESAT 24 Mar 17:56:33 17:59:01 17° 70° (ENE) 18:01:28 437.300
O/OREOS (USA 219) 24 Mar 17:58:59 18:03:29 75° 291° (WNW) 18:08:02 437.305
KAITUO 1B 24 Mar 18:00:43 18:03:26 19° 71° (ENE) 18:06:08 145.475/437.950
XW-2C 24 Mar 18:04:01 18:07:16 27° 72° (ENE) 18:10:31 145.795 - 145.815
DOVE 4 24 Mar 18:24:29 18:29:00 72° 75° (ENE) 18:33:50 437.250
PCSat 24 Mar 18:28:58 18:29:29 10° 44° (NE) 18:29:58 145.827
STARS 24 Mar 18:32:10 18:36:34 67° 286° (WNW) 18:40:56 437.465
RS-15 24 Mar 18:35:52 18:41:29 14° 359° (N) 18:47:05 29.354- 29.394
CUBESAT XI-V 24 Mar 18:38:39 18:42:49 34° 288° (WNW) 18:47:00 437.345
LilacSat-2 24 Mar 18:54:23 18:58:10 57° 260° (W) 19:01:56 437.200
XW-2F 24 Mar 18:57:00 19:00:45 57° 260° (W) 19:04:29 145.980 - 146.000
YUBILEINY 24 Mar 19:00:25 19:08:25 39° 76° (ENE) 19:16:22 435.215
SEEDS 24 Mar 19:08:24 19:09:43 11° 66° (ENE) 19:11:01 437.485
CUTE 1.7 + AOD 2 24 Mar 19:09:16 19:12:14 19° 69° (ENE) 19:15:12 437.475
HO-68 24 Mar 19:17:27 19:24:05 43° 67° (ENE) 19:30:44 435.675
XW-2D 24 Mar 19:22:13 19:25:24 25° 264° (W) 19:28:33 145.860 - 145.880
XW-2B 24 Mar 19:28:18 19:31:17 22° 264° (W) 19:34:17 145.730 - 145.750
NUDT-PHONESAT 24 Mar 19:29:34 19:32:43 25° 263° (W) 19:35:52 437.300
KAITUO 1B 24 Mar 19:34:19 19:37:17 22° 264° (W) 19:40:16 145.475/437.950
UWE-3 24 Mar 19:37:32 19:39:20 12° 65° (ENE) 19:41:07 435.000/436.395/437.385
